Calgary Springbank, Alberta

1:45 AM MDT on August 28, 2016 (GMT -0600)
Springbank

Weather History for CYBW - February, 2013

Change the Weather History Date:

Friday, February 22, 2013

  Actual Average Record
Temperature  
Mean Temperature 26 °F -  
Max Temperature 42 °F 33 °F 46 °F (2008)
Min Temperature 11 °F 12 °F -14 °F (2003)
Degree Days  
Heating Degree Days 38    
Moisture  
Dew Point 12 °F    
Average Humidity 44    
Maximum Humidity 68    
Minimum Humidity 19    
Precipitation  
Precipitation 0.00 in - - ()
Sea Level Pressure  
Sea Level Pressure 29.56 in    
Wind  
Wind Speed 7 mph ()    
Max Wind Speed 22 mph    
Max Gust Speed 29 mph    
Visibility 15.0 miles    
Events      
Averages and records for this station are not official NWS values.
T = Trace of Precipitation, MM = Missing Value Source: Averaged Metar Reports

Daily Weather History Graph

Daily Weather History Graph

Search for Another Location

Airport or City:

Trip Planner

Search our weather history database for the weather conditions in past years. The results will help you decide how hot, cold, wet, or windy it might be!

Date:

Astronomy

Feb. 22, 2013 Rise Set
Actual Time 7:35 AM MST 6:06 PM MST
Civil Twilight 7:02 AM MST 6:40 PM MST
Nautical Twilight 6:23 AM MST 7:18 PM MST
Astronomical Twilight 5:45 AM MST 7:57 PM MST
Moon 3:09 PM MST (2/22) 5:37 AM MST (2/22)
Length of Visible Light 11h 38m
Length of Day
10h 30m
Waxing Gibbous, 90% of the Moon is Illuminated
Feb 22
Waxing Gibbous
Feb 25
Full
Mar 4
Last Quarter
Mar 11
New
Mar 19
First Quarter

Hourly Weather History & Observations

Time (MST) Temp. Windchill Dew Point Humidity Pressure Visibility Wind Dir Wind Speed Gust Speed Precip Events Conditions
5:00 AM 16 °F - 4 °F 45% 29.80 in 15 mi South 3.5 mph - -   Scattered Clouds
5:00 AM 15.8 °F 10.2 °F 3.2 °F 58% 29.80 in 15.0 mi South 3.5 mph - N/A   Partly Cloudy
6:00 AM 17.6 °F 9.3 °F 5.0 °F 58% 29.78 in 15.0 mi WNW 5.8 mph - N/A   Partly Cloudy
7:00 AM 19.4 °F 12.8 °F 6.8 °F 58% 29.79 in 25.0 mi West 4.6 mph - N/A   Partly Cloudy
8:00 AM 15.8 °F 3.4 °F 6.8 °F 68% 29.76 in 30.0 mi SW 10.4 mph - N/A   Partly Cloudy
10:00 AM 30.2 °F 22.6 °F 14.0 °F 51% 29.68 in 30.0 mi South 8.1 mph - N/A   Mostly Cloudy
11:00 AM 34 °F - 13 °F 28% 29.63 in 28 mi South 10.4 mph - -   Mostly Cloudy
11:00 AM 33.8 °F 25.8 °F 14.0 °F 44% 29.63 in 30.0 mi South 10.4 mph - N/A   Mostly Cloudy
12:00 PM 35.6 °F 27.1 °F 12.2 °F 38% 29.58 in 30.0 mi SSE 12.7 mph - N/A   Overcast
1:00 PM 35.6 °F 28.0 °F 12.2 °F 38% 29.55 in 30.0 mi South 10.4 mph - N/A   Overcast
2:00 PM 37.4 °F 29.8 °F 14.0 °F 38% 29.49 in 30.0 mi SSE 11.5 mph - N/A   Mostly Cloudy
3:00 PM 37.4 °F 32.1 °F 15.8 °F 41% 29.45 in 30.0 mi SSE 6.9 mph - N/A   Mostly Cloudy
4:00 PM 39.2 °F - 14.0 °F 36% 29.42 in 30.0 mi Calm Calm - N/A   Mostly Cloudy
4:13 PM 39.2 °F 31.6 °F 14.0 °F 36% 29.41 in 30.0 mi WNW 12.7 mph - N/A   Mostly Cloudy
5:00 PM 42 °F - 14 °F 19% 29.40 in 28 mi West 11.5 mph - -   Mostly Cloudy
5:00 PM 42.8 °F 35.4 °F 14.0 °F 31% 29.39 in 30.0 mi West 15.0 mph - N/A   Mostly Cloudy
6:00 PM 39.2 °F 29.0 °F 12.2 °F 33% 29.41 in 30.0 mi West 21.9 mph 28.8 mph N/A   Mostly Cloudy
7:00 PM 33.8 °F 23.2 °F 12.2 °F 41% 29.44 in 15.0 mi West 17.3 mph 24.2 mph N/A   Mostly Cloudy
8:00 PM 32.0 °F 26.4 °F 12.2 °F 44% 29.46 in 15.0 mi NW 5.8 mph - N/A   Overcast
9:00 PM 30.2 °F 21.3 °F 14.0 °F 51% 29.44 in 15.0 mi WNW 10.4 mph - N/A   Overcast
10:00 PM 26.6 °F 18.2 °F 14.0 °F 59% 29.44 in 15.0 mi West 8.1 mph - N/A   Overcast